Powrót do katalogu

STARLINK-31212

AktywnyŁącznośćVLEO
NORAD 58875·PAYLOAD·🇺🇸 United States

Wystrzelony Jan 29, 2024 z Cape Canaveral Space Force Station

Loading…

Następne Przeloty (najbliższe 24 godziny)

TLE

ŚwieżeSource: CelesTrak SupGP

Epoka: Sep 14, 2026, 21:25 UTC

1 58875C 24019Y   26257.89284722  .00033488  00000+0  12131-2 0  2575
2 58875  42.9991 260.0511 0001455 264.8459  60.3592 15.27556696    15

Śledź STARLINK-31212 w czasie rzeczywistym z AllMySat

Download on the App Store